{"data":{"norad_id":53233,"intl_designator":"2022-084AW","name":"STARLINK-4372","alt_names":[],"object_type":"PAYLOAD","status":"ACTIVE","operator":null,"country":"US","launch_date":"2022-07-22","launch_site_code":"AFWTR","launch_vehicle":null,"mission":null,"orbit_class":"UNKNOWN","rcs_meters":null,"size_class":null,"mass_kg":null,"dimensions":null,"purposes":["comms"],"wikipedia_slug":null,"has_3d_model":false,"image_url":null,"decayed_at":null,"tle_current":{"epoch":"2026-05-25T03:10:56.412768Z","epoch_age_seconds":66764,"freshness":"FRESH","line1":"1 53233U 22084AW  26145.13259737 -.00002133  00000+0 -14390-3 0  9997","line2":"2 53233  97.4519 205.0595 0000591 172.2324 187.8912 15.05633991210815","mean_motion":15.05633991,"eccentricity":5.91e-5,"inclination_deg":97.4519,"raan_deg":205.0595,"arg_perigee_deg":172.2324,"mean_anomaly_deg":187.8912,"bstar":-0.0001439,"rev_number":21081,"period_min":95.640773827349,"perigee_km":549.15083358647,"apogee_km":549.96968740266,"semimajor_km":6927.6972604946,"source":"CELESTRAK","updated_at":"2026-05-25T13:38:17.358993Z"}}}